User: anonymous   Login
Location: Newark
(48.1500°N, 2.9667°W)
Time: 10:06:41
(UTC+00:00)
Language:

A-11 Canister half - Orbit

View from above orbital plane
View from above orbital plane
View from above satellite
View from above satellite

Ground track
Ground track

The orbit data is extracted from the following two-line orbital elements,

1 00053U 60009E   21016.79544390 -.00000020  00000-0  63414-3 0  9998
2 00053  47.2781 321.0794 0100396 351.1891   8.7135 12.17252027694554
Epoch (UTC): 16 January 2021 19:05:26
Eccentricity: 0.0100396
inclination: 47.2781°
perigee height: 1524 km
apogee height: 1684 km
right ascension of ascending node: 321.0794°
argument of perigee: 351.1891°
revolutions per day: 12.17252027
mean anomaly at epoch: 8.7135°
orbit number at epoch: 69455

The dashed part of the orbit path shows where the satellite is in the earth's shadow,  

DLR